Tracking 32420 objects as of 8-Dec-2025
HD Live streaming from Space Station
objects crossing your sky now

SL-14 DEB

Track SL-14 DEB now!
10-day predictions


NORAD ID: 25999
Int'l Code: 1991-068J
Perigee: 1,375.1 km
Apogee: 1,469.3 km
Inclination: 82.7 °
Period: 114.1 minutes
Semi major axis: 7793 km
RCS: 0.0764 m2 (small)
Launch date: September 28, 1991
Source: Commonwealth of Independent States (former USSR) (CIS)
Launch site: PLESETSK MISSILE AND SPACE COMPLEX (PKMTR)

Note: This is SATELLITE DEBRIS
Your satellite tracking list
Your tracking list is empty




NASA's NSSDC Master Catalog

Two Line Element Set (TLE):
1 25999U 91068J   25341.74063066  .00000177  00000-0  92333-3 0  9993
2 25999  82.6975 229.0075 0060445 127.1419 291.2015 12.61922316204281
Source of the keplerian elements: AFSPC